Location: Newark
(50.5897°N, 2.4589°E)
Time: 17:58:17
(UTC+00:00)

N. Korean satellite - Visible Passes

Search period start: 15 December 2019 00:00
Search period end: 25 December 2019 00:00
Orbit: 455 x 507 km, 97.2° (Epoch: 14 December)

Date Brightness Start Highest point End Pass type
(mag) Time Alt. Az. Time Alt. Az. Time Alt. Az.
15 Dec 6.3 06:00:40 10° N 06:04:12 76° WNW 06:07:39 10° SSW visible
15 Dec 6.6 16:40:14 10° SSE 16:43:55 83° ENE 16:47:35 10° NNW visible
16 Dec 7.3 05:35:17 10° NNE 05:38:44 53° E 05:42:07 10° S visible
16 Dec 9.7 17:49:34 10° SW 17:52:07 18° W 17:54:40 10° NW visible
17 Dec 8.7 05:10:09 10° NE 05:13:11 27° E 05:16:09 10° SSE visible
17 Dec 7.5 06:43:36 10° N 06:46:31 25° WNW 06:49:24 10° WSW visible
17 Dec 8.6 17:23:11 10° SSW 17:26:30 32° W 17:29:49 10° NNW visible
18 Dec 9.7 04:45:30 10° NE 04:47:31 15° E 04:49:31 10° SE visible
18 Dec 6.7 06:17:49 10° N 06:21:12 46° WNW 06:24:31 10° SW visible
18 Dec 7.2 16:57:21 10° S 17:00:59 62° WSW 17:04:35 10° NNW visible
19 Dec 6.4 05:52:17 10° NNE 05:55:47 86° E 05:59:14 10° SSW visible
19 Dec 6.5 16:31:55 10° SSE 16:35:32 67° ENE 16:39:08 10° N visible
19 Dec 10.1 18:07:58 10° WSW 18:09:21 12° W 18:10:42 10° WNW visible
20 Dec 7.8 05:26:57 10° NNE 05:30:17 41° E 05:33:34 10° S visible
20 Dec 8.0 07:01:04 10° NNW 07:03:24 17° WNW 07:05:43 10° WSW visible
20 Dec 9.4 17:40:49 10° SW 17:43:40 21° W 17:46:29 10° NW visible
21 Dec 9.1 05:01:55 10° NE 05:04:41 22° E 05:07:26 10° SE visible
21 Dec 7.2 06:35:04 10° N 06:38:08 30° WNW 06:41:11 10° SW visible
21 Dec 8.2 17:14:38 10° SSW 17:18:04 39° W 17:21:29 10° NNW visible
22 Dec 9.9 04:37:39 10° ENE 04:39:00 12° E 04:40:21 10° ESE visible
22 Dec 6.4 06:09:22 10° N 06:12:48 58° WNW 06:16:10 10° SSW visible
22 Dec 6.8 16:48:56 10° S 16:52:34 77° WSW 16:56:11 10° NNW visible
23 Dec 6.7 05:43:53 10° NNE 05:47:21 68° ESE 05:50:45 10° S visible
23 Dec 6.7 16:23:36 10° SSE 16:27:08 53° ENE 16:30:39 10° N visible
23 Dec 9.9 17:58:52 10° WSW 18:00:50 14° W 18:02:49 10° WNW visible
24 Dec 8.2 05:18:38 10° NNE 05:21:49 33° E 05:24:57 10° SSE visible
24 Dec 7.8 06:52:25 10° NNW 06:55:02 20° WNW 06:57:37 10° WSW visible
24 Dec 9.0 17:32:08 10° SSW 17:35:11 25° W 17:38:13 10° NW visible
